Lid_Strength_Index
3 3 2 2 2 2 2 3 3 3 3 3 3 3 3 3 3 4 6 4 7 10 10 8 9 11 11 11 13 12 12 11 11 13 14 14 15 13 14 12 13 13 15 16 16 18 19 9 9 13 9 7 8 8
2 2 2 2 2 2 2 2 3 3 3 3 3 3 3 3 3 3 7 4 4 9 10 8 8 7 9 10 11 11 12 13 11 13 12 12 14 13 14 17 10 15 11 13 12 13 8 7 8 7 7 7 7 7
2 2 3 2 2 2 2 2 2 2 2 2 2 2 2 2 2 2 5 5 6 9 10 11 11 8 7 7 6 12 12 11 11 9 13 13 16 13 17 14 13 11 8 12 11 9 8 7 6 6 6 7 7 7
3 3 3 2 2 2 2 2 1 1 2 2 2 2 1 1 1 1 3 4 5 7 13 13 9 10 7 7 7 7 8 8 9 11 14 14 15 12 13 12 13 11 12 12 13 11 9 8 7 6 7 7 8 8
3 3 3 2 2 2 2 1 1 1 1 1 1 0 0 -0 -1 -0 0 1 2 5 11 12 10 8 7 7 8 8 9 10 11 13 14 15 13 14 13 13 15 11 12 12 13 9 9 8 7 7 8 7 6 7
3 3 2 2 2 2 2 1 1 1 0 0 -0 -0 -1 -1 -1 1 5 1 0 1 6 11 7 9 6 6 8 8 8 9 10 12 12 11 10 12 15 16 12 11 10 9 12 10 10 10 10 8 8 7 6 6
3 3 2 2 2 2 2 1 1 0 -0 -1 -1 -1 -1 -1 0 4 5 2 0 0 6 9 10 9 9 8 7 7 7 7 8 9 11 12 12 12 14 17 13 12 11 10 11 11 12 12 12 9 9 9 9 9
3 2 2 2 1 1 1 1 1 -0 -1 -1 -1 -1 -1 -1 -0 3 1 -1 -0 3 5 10 10 10 9 10 10 7 8 7 8 9 9 11 11 12 16 13 11 11 10 10 12 13 11 10 10 9 9 9 9 9
2 2 1 1 1 1 1 0 -0 -0 -1 -1 -1 -1 0 2 4 3 -1 -1 -0 4 8 10 13 14 10 9 8 7 7 11 8 12 11 10 13 15 13 13 16 18 18 19 18 17 15 14 14 13 12 11 11 10
1 1 1 1 0 0 0 -0 -0 -1 -1 -1 1 3 7 5 0 0 4 6 5 5 6 10 11 12 9 9 11 11 11 12 15 13 9 12 14 11 19 19 19 19 18 19 22 21 20 20 19 17 16 14 12 10
1 0 0 0 -0 -1 -0 -1 -1 -0 -0 2 5 6 3 -0 3 5 8 10 13 13 10 9 11 10 7 11 12 8 10 11 15 13 14 15 16 16 18 19 19 18 19 20 20 20 20 20 20 19 18 16 14 13
0 0 -0 -1 -1 -1 -1 -0 -0 1 2 2 3 2 2 5 7 10 11 14 15 14 13 11 10 9 8 5 9 9 11 11 16 11 14 17 12 19 21 22 21 21 22 22 22 22 22 21 20 20 20 19 18 15
-0 -0 -1 -0 -0 -0 -0 -0 -0 -0 0 2 4 6 7 9 13 14 16 17 18 15 13 11 10 8 7 7 9 11 15 15 13 15 16 13 20 21 23 23 23 23 23 23 24 24 24 23 22 20 18 17 17 14
-0 -0 -1 -1 -0 -0 -0 -0 -0 0 3 7 9 12 11 13 12 14 15 13 12 12 13 12 11 9 10 10 10 14 13 14 17 18 16 21 23 24 24 24 26 27 26 26 26 26 26 25 24 20 17 16 15 16
-1 -0 -0 0 -0 -0 -0 -0 -0 3 6 9 10 15 15 13 17 18 19 17 18 16 14 12 12 11 11 12 12 14 17 18 16 16 21 24 25 26 27 27 27 27 26 26 26 27 27 26 24 21 21 19 18 20
-0 -0 1 -0 -0 0 0 1 3 6 6 8 9 13 19 17 18 19 20 20 17 16 14 13 12 14 14 14 17 16 17 18 17 27 26 26 28 28 28 27 27 26 26 27 27 26 26 26 25 23 23 23 22 22
-0 5 1 1 1 1 1 5 5 7 9 11 12 19 19 22 23 25 24 20 18 18 14 15 14 14 13 15 17 24 22 29 28 28 27 27 28 28 27 27 26 26 27 27 27 27 27 26 24 26 26 26 24 24
6 3 2 2 2 2 3 5 8 11 11 16 17 23 24 23 24 25 24 21 19 19 19 18 19 19 18 19 19 31 29 28 27 27 27 27 27 27 26 26 26 26 27 27 27 27 27 27 27 27 26 26 26 26
6 3 1 1 1 6 7 8 8 14 17 20 20 21 23 24 23 23 24 22 22 22 22 23 26 29 31 29 30 29 28 28 29 27 27 26 26 26 26 26 26 27 27 27 27 27 27 27 27 27 26 26 27 26
2 2 2 2 2 9 11 12 10 11 17 19 19 21 22 23 23 24 24 24 25 26 29 30 31 29 29 28 27 27 27 26 27 29 29 27 26 26 27 27 27 26 26 26 26 27 27 27 27 27 27 27 27 28
6 7 6 6 8 11 15 16 14 14 17 21 20 20 23 23 26 27 27 25 28 31 31 30 31 27 26 26 26 26 26 27 29 29 29 29 27 26 27 27 26 26 27 27 27 27 28 28 27 27 27 28 27 26
13 7 12 10 11 13 16 17 17 14 15 19 20 21 25 26 27 27 24 27 29 31 29 27 27 28 28 28 27 27 27 27 27 27 27 27 28 28 28 28 28 28 27 27 27 27 26 26 26 26 27 27 26 27
12 12 16 17 17 19 22 18 19 20 19 21 20 23 25 26 25 23 28 29 28 26 26 27 27 27 27 26 26 27 27 28 29 29 29 29 26 25 26 27 28 29 27 26 25 25 26 25 25 25 25 25 26 27
15 21 23 25 25 27 24 26 23 22 23 24 24 26 27 26 23 27 30 30 27 26 27 28 28 29 28 28 28 29 28 27 28 28 29 29 28 27 25 27 28 28 28 25 25 26 26 26 25 26 26 26 27 27
23 30 28 33 28 29 30 31 30 27 28 28 28 27 27 26 30 31 31 30 29 29 29 28 28 29 30 30 28 28 26 27 28 30 29 29 29 27 27 26 26 28 28 27 27 26 27 26 27 27 27 28 28 29
34 34 36 40 33 34 33 35 33 32 30 30 30 29 29 31 32 33 31 29 29 29 29 29 30 30 30 29 30 29 29 26 26 29 29 29 30 31 30 30 29 28 28 28 28 28 28 28 29 30 30 30 30 30
35 36 36 38 36 34 35 34 34 33 33 33 32 31 29 32 33 33 28 27 28 27 27 26 27 29 29 29 28 28 27 26 26 26 26 27 28 29 30 32 32 30 28 28 29 30 30 30 30 31 32 33 35 33
34 36 36 37 38 41 40 41 41 40 39 34 32 32 32 32 33 29 27 25 26 25 24 25 25 26 27 28 28 29 28 28 25 25 25 26 28 29 30 30 30 26 30 29 27 30 33 33 33 33 32 33 34 35
35 36 36 37 39 37 37 38 37 36 33 40 35 32 34 33 31 29 27 26 25 25 26 26 26 28 27 27 28 30 31 30 28 30 30 31 30 29 30 32 32 33 34 34 28 23 28 29 33 33 36 33 34 35
38 41 38 40 37 37 35 36 35 33 32 35 36 30 30 29 29 28 27 28 28 27 28 30 32 33 32 33 32 31 34 35 33 32 35 35 33 33 35 35 35 34 36 37 33 32 29 32 31 33 33 33 33 32
43 44 40 40 37 40 41 45 43 40 42 42 44 38 35 36 33 32 30 32 35 39 36 36 37 41 40 39 40 39 34 38 42 40 39 38 37 37 36 35 34 38 42 38 36 36 34 33 36 37 35 35 35 35
43 46 40 36 37 41 45 46 47 43 46 42 40 47 41 39 36 34 35 36 38 37 33 37 40 33 35 34 39 38 33 32 33 33 35 34 34 33 32 32 33 37 37 34 35 35 36 38 36 36 36 36 36 36
47 50 49 43 38 38 42 43 41 40 42 42 41 47 47 40 35 32 33 35 30 27 29 31 31 34 36 35 34 34 32 33 33 27 25 25 25 25 25 26 30 32 33 33 33 33 35 36 35 35 35 36 36 35